Year,Month,Day,Hour,Minute,Value (Times are PST for temperature in C)
2019,09,24,00,00,12.60
2019,09,24,00,01,12.60
2019,09,24,00,02,12.60
2019,09,24,00,03,12.60
2019,09,24,00,04,12.60
2019,09,24,00,05,12.60
2019,09,24,00,06,12.60
2019,09,24,00,07,12.60
2019,09,24,00,08,12.60
2019,09,24,00,09,12.60
2019,09,24,00,10,12.60
2019,09,24,00,11,12.60
2019,09,24,00,12,12.60
2019,09,24,00,13,12.60
2019,09,24,00,14,12.60
2019,09,24,00,15,12.60
2019,09,24,00,16,12.60
2019,09,24,00,17,12.60
2019,09,24,00,18,12.60
2019,09,24,00,19,12.60
2019,09,24,00,20,12.60
2019,09,24,00,21,12.60
2019,09,24,00,22,12.60
2019,09,24,00,23,12.60
2019,09,24,00,24,12.60
2019,09,24,00,25,12.60
2019,09,24,00,26,12.60
2019,09,24,00,27,12.60
2019,09,24,00,28,12.60
2019,09,24,00,29,12.60
2019,09,24,00,30,12.60
2019,09,24,00,32,12.60
2019,09,24,00,33,12.60
2019,09,24,00,34,12.60
2019,09,24,00,35,12.60
2019,09,24,00,36,12.60
2019,09,24,00,37,12.60
2019,09,24,00,38,12.60
2019,09,24,00,39,12.60
2019,09,24,00,40,12.60
2019,09,24,00,41,12.60
2019,09,24,00,42,12.60
2019,09,24,00,43,12.60
2019,09,24,00,44,12.60
2019,09,24,00,45,12.60
2019,09,24,00,46,12.60
2019,09,24,00,47,12.60
2019,09,24,00,48,12.60
2019,09,24,00,49,12.60
2019,09,24,00,50,12.60
2019,09,24,00,51,12.60
2019,09,24,00,52,12.60
2019,09,24,00,53,12.60
2019,09,24,00,54,12.60
2019,09,24,00,55,12.60
2019,09,24,00,56,12.60
2019,09,24,00,57,12.60
2019,09,24,00,58,12.60
2019,09,24,00,59,12.60
2019,09,24,01,00,12.60
2019,09,24,01,01,12.60
2019,09,24,01,02,12.60
2019,09,24,01,03,12.60
2019,09,24,01,04,12.60
2019,09,24,01,05,12.60
2019,09,24,01,06,12.60
2019,09,24,01,07,12.60
2019,09,24,01,08,12.60
2019,09,24,01,09,12.60
2019,09,24,01,10,12.60
2019,09,24,01,11,12.60
2019,09,24,01,12,12.60
2019,09,24,01,13,12.60
2019,09,24,01,14,12.60
2019,09,24,01,15,12.60
2019,09,24,01,16,12.60
2019,09,24,01,17,12.60
2019,09,24,01,18,12.60
2019,09,24,01,19,12.60
2019,09,24,01,20,12.60
2019,09,24,01,21,12.60
2019,09,24,01,22,12.60
2019,09,24,01,23,12.60
2019,09,24,01,24,12.60
2019,09,24,01,25,12.60
2019,09,24,01,26,12.60
2019,09,24,01,27,12.60
2019,09,24,01,28,12.60
2019,09,24,01,29,12.60
2019,09,24,01,30,12.60
2019,09,24,01,31,12.60
2019,09,24,01,32,12.60
2019,09,24,01,33,12.60
2019,09,24,01,34,12.60
2019,09,24,01,35,12.60
2019,09,24,01,36,12.60
2019,09,24,01,37,12.60
2019,09,24,01,38,12.60
2019,09,24,01,39,12.60
2019,09,24,01,40,12.60
2019,09,24,01,41,12.60
2019,09,24,01,43,12.60
2019,09,24,01,44,12.60
2019,09,24,01,46,12.60
2019,09,24,01,47,12.60
2019,09,24,01,48,12.60
2019,09,24,01,49,12.60
2019,09,24,01,51,12.60
2019,09,24,01,52,12.60
2019,09,24,01,53,12.60
2019,09,24,01,54,12.60
2019,09,24,01,56,12.60
2019,09,24,01,57,12.60
2019,09,24,01,58,12.60
2019,09,24,01,59,12.60
2019,09,24,02,01,12.60
2019,09,24,02,02,12.60
2019,09,24,02,03,12.60
2019,09,24,02,04,12.60
2019,09,24,02,06,12.60
2019,09,24,02,07,12.60
2019,09,24,02,08,12.60
2019,09,24,02,09,12.60
2019,09,24,02,11,12.60
2019,09,24,02,12,12.60
2019,09,24,02,13,12.60
2019,09,24,02,14,12.60
2019,09,24,02,16,12.60
2019,09,24,02,17,12.60
2019,09,24,02,18,12.60
2019,09,24,02,19,12.60
2019,09,24,02,21,12.60
2019,09,24,02,22,12.60
2019,09,24,02,23,12.60
2019,09,24,02,24,12.60
2019,09,24,02,26,12.60
2019,09,24,02,27,12.60
2019,09,24,02,28,12.60
2019,09,24,02,29,12.60
2019,09,24,02,31,12.60
2019,09,24,02,32,12.60
2019,09,24,02,33,12.60
2019,09,24,02,34,12.60
2019,09,24,02,36,12.60
2019,09,24,02,37,12.60
2019,09,24,02,38,12.60
2019,09,24,02,39,12.60
2019,09,24,02,41,12.60
2019,09,24,02,42,12.60
2019,09,24,02,43,12.60
2019,09,24,02,44,12.60
2019,09,24,02,46,12.60
2019,09,24,02,47,12.60
2019,09,24,02,48,12.60
2019,09,24,02,49,12.60
2019,09,24,02,51,12.60
2019,09,24,02,52,12.60
2019,09,24,02,53,12.60
2019,09,24,02,54,12.60
2019,09,24,02,56,12.60
2019,09,24,02,57,12.60
2019,09,24,02,58,12.60
2019,09,24,02,59,12.60
2019,09,24,03,01,12.60
2019,09,24,03,02,12.60
2019,09,24,03,03,12.60
2019,09,24,03,04,12.60
2019,09,24,03,06,12.60
2019,09,24,03,07,12.60
2019,09,24,03,08,12.60
2019,09,24,03,09,12.60
2019,09,24,03,11,12.60
2019,09,24,03,12,12.60
2019,09,24,03,13,12.60
2019,09,24,03,14,12.60
2019,09,24,03,16,12.60
2019,09,24,03,17,12.60
2019,09,24,03,18,12.60
2019,09,24,03,19,12.60
2019,09,24,03,21,12.60
2019,09,24,03,22,12.60
2019,09,24,03,23,12.60
2019,09,24,03,24,12.60
2019,09,24,03,26,12.60
2019,09,24,03,27,12.60
2019,09,24,03,28,12.60
2019,09,24,03,29,12.60
2019,09,24,03,31,12.60
2019,09,24,03,32,12.60
2019,09,24,03,33,12.60
2019,09,24,03,34,12.60
2019,09,24,03,36,12.60
2019,09,24,03,37,12.60
2019,09,24,03,38,12.60
2019,09,24,03,39,12.60
2019,09,24,03,41,12.60
2019,09,24,03,42,12.60
2019,09,24,03,43,12.60
2019,09,24,03,44,12.60
2019,09,24,03,45,12.60
2019,09,24,03,46,12.60
2019,09,24,03,47,12.60
2019,09,24,03,48,12.60
2019,09,24,03,49,12.60
2019,09,24,03,51,12.60
2019,09,24,03,52,12.60
2019,09,24,03,53,12.60
2019,09,24,03,54,12.60
2019,09,24,03,56,12.60
2019,09,24,03,57,12.60
2019,09,24,03,58,12.60
2019,09,24,03,59,12.60
2019,09,24,04,00,12.60
2019,09,24,04,01,12.60
2019,09,24,04,02,12.60
2019,09,24,04,03,12.60
2019,09,24,04,04,12.60
2019,09,24,04,06,12.60
2019,09,24,04,07,12.60
2019,09,24,04,08,12.60
2019,09,24,04,09,12.60
2019,09,24,04,10,12.60
2019,09,24,04,11,12.60
2019,09,24,04,12,12.60
2019,09,24,04,13,12.60
2019,09,24,04,14,12.60
2019,09,24,04,15,12.60
2019,09,24,04,16,12.60
2019,09,24,04,17,12.60
2019,09,24,04,18,12.60
2019,09,24,04,19,12.60
2019,09,24,04,20,12.60
2019,09,24,04,21,12.60
2019,09,24,04,22,12.60
2019,09,24,04,23,12.60
2019,09,24,04,24,12.60
2019,09,24,04,25,12.60
2019,09,24,04,26,12.60
2019,09,24,04,27,12.60
2019,09,24,04,28,12.60
2019,09,24,04,29,12.60
2019,09,24,04,30,12.60
2019,09,24,04,31,12.60
2019,09,24,04,32,12.60
2019,09,24,04,33,12.60
2019,09,24,04,34,12.60
2019,09,24,04,36,12.60
2019,09,24,04,37,12.60
2019,09,24,04,38,12.60
2019,09,24,04,39,12.60
2019,09,24,04,40,12.60
2019,09,24,04,41,12.60
2019,09,24,04,42,12.60
2019,09,24,04,43,12.60
2019,09,24,04,44,12.60
2019,09,24,04,45,12.60
2019,09,24,04,46,12.60
2019,09,24,04,47,12.60
2019,09,24,04,48,12.60
2019,09,24,04,49,12.60
2019,09,24,04,50,12.60
2019,09,24,04,51,12.60
2019,09,24,04,52,12.60
2019,09,24,04,53,12.60
2019,09,24,04,54,12.60
2019,09,24,04,55,12.60
2019,09,24,04,56,12.60
2019,09,24,04,57,12.60
2019,09,24,04,58,12.60
2019,09,24,04,59,12.60
2019,09,24,05,00,12.60
2019,09,24,05,01,12.60
2019,09,24,05,02,12.60
2019,09,24,05,03,12.60
2019,09,24,05,04,12.60
2019,09,24,05,05,12.60
2019,09,24,05,06,12.60
2019,09,24,05,07,12.60
2019,09,24,05,08,12.60
2019,09,24,05,09,12.60
2019,09,24,05,10,12.60
2019,09,24,05,11,12.60
2019,09,24,05,12,12.60
2019,09,24,05,13,12.60
2019,09,24,05,14,12.60
2019,09,24,05,15,12.60
2019,09,24,05,16,12.60
2019,09,24,05,17,12.60
2019,09,24,05,18,12.60
2019,09,24,05,19,12.60
2019,09,24,05,20,12.60
2019,09,24,05,21,12.60
2019,09,24,05,22,12.60
2019,09,24,05,23,12.60
2019,09,24,05,24,12.60
2019,09,24,05,25,12.60
2019,09,24,05,26,12.60
2019,09,24,05,27,12.60
2019,09,24,05,28,12.60
2019,09,24,05,29,12.60
2019,09,24,05,30,12.60
2019,09,24,05,31,12.60
2019,09,24,05,32,12.60
2019,09,24,05,33,12.60
2019,09,24,05,34,12.60
2019,09,24,05,35,12.60
2019,09,24,05,36,12.60
2019,09,24,05,37,12.60
2019,09,24,05,38,12.60
2019,09,24,05,39,12.60
2019,09,24,05,40,12.60
2019,09,24,05,41,12.60
2019,09,24,05,42,12.60
2019,09,24,05,43,12.60
2019,09,24,05,44,12.60
2019,09,24,05,45,12.60
2019,09,24,05,46,12.60
2019,09,24,05,47,12.60
2019,09,24,05,48,12.60
2019,09,24,05,49,12.60
2019,09,24,05,50,12.60
2019,09,24,05,51,12.60
2019,09,24,05,52,12.60
2019,09,24,05,53,12.60
2019,09,24,05,54,12.60
2019,09,24,05,55,12.60
2019,09,24,05,56,12.60
2019,09,24,05,57,12.60
2019,09,24,05,58,12.60
2019,09,24,05,59,12.60
2019,09,24,06,00,12.60
2019,09,24,06,01,12.60
2019,09,24,06,02,12.60
2019,09,24,06,03,12.60
2019,09,24,06,04,12.60
2019,09,24,06,05,12.60
2019,09,24,06,06,12.60
2019,09,24,06,07,12.60
2019,09,24,06,08,12.60
2019,09,24,06,09,12.60
2019,09,24,06,10,12.60
2019,09,24,06,11,12.60
2019,09,24,06,12,12.60
2019,09,24,06,13,12.60
2019,09,24,06,14,12.60
2019,09,24,06,15,12.60
2019,09,24,06,16,12.60
2019,09,24,06,17,12.60
2019,09,24,06,18,12.60
2019,09,24,06,19,12.60
2019,09,24,06,20,12.60
2019,09,24,06,21,12.60
2019,09,24,06,22,12.60
2019,09,24,06,23,12.60
2019,09,24,06,24,12.60
2019,09,24,06,25,12.60
2019,09,24,06,26,12.60
2019,09,24,06,27,12.60
2019,09,24,06,28,12.60
2019,09,24,06,29,12.60
2019,09,24,06,30,12.60
2019,09,24,06,32,12.60
2019,09,24,06,33,12.60
2019,09,24,06,34,12.60
2019,09,24,06,35,12.60
2019,09,24,06,36,12.60
2019,09,24,06,37,12.60
2019,09,24,06,39,12.60
2019,09,24,06,40,12.60
2019,09,24,06,42,12.60
2019,09,24,06,43,12.60
2019,09,24,06,44,12.60
2019,09,24,06,45,12.60
2019,09,24,06,47,12.60
2019,09,24,06,49,12.60
2019,09,24,06,51,12.60
2019,09,24,06,52,12.60
2019,09,24,06,53,12.60
2019,09,24,06,54,12.60
2019,09,24,06,56,12.60
2019,09,24,06,57,12.60
2019,09,24,06,58,12.60
2019,09,24,06,59,12.60
2019,09,24,07,01,12.60
2019,09,24,07,02,12.60
2019,09,24,07,03,12.60
2019,09,24,07,04,12.60
2019,09,24,07,06,12.60
2019,09,24,07,07,12.60
2019,09,24,07,08,12.60
2019,09,24,07,09,12.60
2019,09,24,07,10,12.60
2019,09,24,07,12,12.60
2019,09,24,07,13,12.60
2019,09,24,07,14,12.60
2019,09,24,07,16,12.60
2019,09,24,07,17,12.60
2019,09,24,07,18,12.60
2019,09,24,07,19,12.60
2019,09,24,07,21,12.60
2019,09,24,07,22,12.60
2019,09,24,07,23,12.60
2019,09,24,07,24,12.60
2019,09,24,07,26,12.60
2019,09,24,07,27,12.60
2019,09,24,07,28,12.60
2019,09,24,07,29,12.60
2019,09,24,07,31,12.60
2019,09,24,07,32,12.60
2019,09,24,07,33,12.60
2019,09,24,07,34,12.60
2019,09,24,07,36,12.60
2019,09,24,07,37,12.60
2019,09,24,07,38,12.60
2019,09,24,07,39,12.60
2019,09,24,07,41,12.60
2019,09,24,07,42,12.60
2019,09,24,07,43,12.60
2019,09,24,07,44,12.60
2019,09,24,07,46,12.60
2019,09,24,07,47,12.60
2019,09,24,07,48,12.60
2019,09,24,07,49,12.60
2019,09,24,07,51,12.60
2019,09,24,07,52,12.60
2019,09,24,07,53,12.60
2019,09,24,07,54,12.60
2019,09,24,07,56,12.60
2019,09,24,07,57,12.60
2019,09,24,07,58,12.60
2019,09,24,07,59,12.60
2019,09,24,08,01,12.60
2019,09,24,08,02,12.60
2019,09,24,08,03,12.60
2019,09,24,08,04,12.60
2019,09,24,08,06,12.60
2019,09,24,08,07,12.60
2019,09,24,08,08,12.60
2019,09,24,08,09,12.60
2019,09,24,08,11,12.60
2019,09,24,08,12,12.60
2019,09,24,08,13,12.60
2019,09,24,08,14,12.60
2019,09,24,08,16,12.60
2019,09,24,08,17,12.60
2019,09,24,08,18,12.60
2019,09,24,08,19,12.60
2019,09,24,08,21,12.60
2019,09,24,08,22,12.60
2019,09,24,08,23,12.60
2019,09,24,08,24,12.60
2019,09,24,08,26,12.60
2019,09,24,08,27,12.60
2019,09,24,08,28,12.60
2019,09,24,08,29,12.60
2019,09,24,08,31,12.60
2019,09,24,08,32,12.60
2019,09,24,08,33,12.60
2019,09,24,08,34,12.60
2019,09,24,08,36,12.60
2019,09,24,08,37,12.60
2019,09,24,08,38,12.60
2019,09,24,08,39,12.60
2019,09,24,08,41,12.60
2019,09,24,08,42,12.60
2019,09,24,08,43,12.60
2019,09,24,08,44,12.60
2019,09,24,08,46,12.60
2019,09,24,08,47,12.60
2019,09,24,08,48,12.60
2019,09,24,08,49,12.60
2019,09,24,08,51,12.60
2019,09,24,08,52,12.60
2019,09,24,08,53,12.60
2019,09,24,08,54,12.60
2019,09,24,08,56,12.60
2019,09,24,08,57,12.60
2019,09,24,08,58,12.60
2019,09,24,08,59,12.60
2019,09,24,09,00,12.60
2019,09,24,09,01,12.60
2019,09,24,09,02,12.60
2019,09,24,09,03,12.60
2019,09,24,09,04,12.60
2019,09,24,09,06,12.60
2019,09,24,09,07,12.60
2019,09,24,09,08,12.60
2019,09,24,09,09,12.60
2019,09,24,09,10,12.60
2019,09,24,09,11,12.60
2019,09,24,09,12,12.60
2019,09,24,09,13,12.60
2019,09,24,09,14,12.60
2019,09,24,09,16,12.60
2019,09,24,09,17,12.60
2019,09,24,09,18,12.60
2019,09,24,09,19,12.60
2019,09,24,09,21,12.60
2019,09,24,09,22,12.60
2019,09,24,09,23,12.60
2019,09,24,09,24,12.60
2019,09,24,09,25,12.60
2019,09,24,09,26,12.60
2019,09,24,09,27,12.60
2019,09,24,09,28,12.60
2019,09,24,09,29,12.60
2019,09,24,09,30,12.60
2019,09,24,09,31,12.60
2019,09,24,09,32,12.60
2019,09,24,09,33,12.60
2019,09,24,09,34,12.60
2019,09,24,09,36,12.60
2019,09,24,09,37,12.60
2019,09,24,09,38,12.60
2019,09,24,09,39,12.60
2019,09,24,09,40,12.60
2019,09,24,09,41,12.60
2019,09,24,09,42,12.60
2019,09,24,09,43,12.60
2019,09,24,09,44,12.60
2019,09,24,09,45,12.60
2019,09,24,09,46,12.60
2019,09,24,09,47,12.60
2019,09,24,09,48,12.60
2019,09,24,09,49,12.60
2019,09,24,09,50,12.60
2019,09,24,09,51,12.60
2019,09,24,09,52,12.60
2019,09,24,09,53,12.60
2019,09,24,09,54,12.60
2019,09,24,09,55,12.60
2019,09,24,09,56,12.60
2019,09,24,09,57,12.60
2019,09,24,09,58,12.60
2019,09,24,09,59,12.60
2019,09,24,10,00,12.60
2019,09,24,10,01,12.60
2019,09,24,10,02,12.60
2019,09,24,10,03,12.60
2019,09,24,10,04,12.60
2019,09,24,10,06,12.60
2019,09,24,10,07,12.60
2019,09,24,10,08,12.60
2019,09,24,10,09,12.60
2019,09,24,10,10,12.60
2019,09,24,10,11,12.60
2019,09,24,10,12,12.60
2019,09,24,10,13,12.60
2019,09,24,10,14,12.60
2019,09,24,10,15,12.60
2019,09,24,10,16,12.60
2019,09,24,10,17,12.60
2019,09,24,10,18,12.60
2019,09,24,10,19,12.60
2019,09,24,10,21,12.60
2019,09,24,10,22,12.60
2019,09,24,10,23,12.60
2019,09,24,10,24,12.60
2019,09,24,10,25,12.60
2019,09,24,10,26,12.60
2019,09,24,10,27,12.60
2019,09,24,10,28,12.60
2019,09,24,10,29,12.60
2019,09,24,10,30,12.60
2019,09,24,10,31,12.60
2019,09,24,10,32,12.60
2019,09,24,10,33,12.60
2019,09,24,10,34,12.60
2019,09,24,10,35,12.60
2019,09,24,10,36,12.60
2019,09,24,10,37,12.60
2019,09,24,10,38,12.60
2019,09,24,10,39,12.60
2019,09,24,10,40,12.60
2019,09,24,10,41,12.60
2019,09,24,10,42,12.60
2019,09,24,10,43,12.60
2019,09,24,10,44,12.60
2019,09,24,10,45,12.60
2019,09,24,10,46,12.60
2019,09,24,10,47,12.60
2019,09,24,10,48,12.60
2019,09,24,10,49,12.60
2019,09,24,10,50,12.60
2019,09,24,10,51,12.60
2019,09,24,10,52,12.60
2019,09,24,10,53,12.60
2019,09,24,10,54,12.60
2019,09,24,10,55,12.60
2019,09,24,10,56,12.60
2019,09,24,10,57,12.60
2019,09,24,10,58,12.60
2019,09,24,10,59,12.60
2019,09,24,11,00,12.60
2019,09,24,11,01,12.60
2019,09,24,11,02,12.60
2019,09,24,11,03,12.60
2019,09,24,11,04,12.60
2019,09,24,11,05,12.60
2019,09,24,11,06,12.60
2019,09,24,11,07,12.60
2019,09,24,11,08,12.60
2019,09,24,11,09,12.60
2019,09,24,11,10,12.60
2019,09,24,11,11,12.60
2019,09,24,11,12,12.60
2019,09,24,11,13,12.60
2019,09,24,11,14,12.60
2019,09,24,11,15,12.60
2019,09,24,11,16,12.60
2019,09,24,11,17,12.60
2019,09,24,11,18,12.60
2019,09,24,11,19,12.60
2019,09,24,11,20,12.60
2019,09,24,11,21,12.60
2019,09,24,11,22,12.60
2019,09,24,11,23,12.60
2019,09,24,11,24,12.60
2019,09,24,11,25,12.60
2019,09,24,11,26,12.60
2019,09,24,11,27,12.60
2019,09,24,11,28,12.60
2019,09,24,11,29,12.60
2019,09,24,11,30,12.60
2019,09,24,11,31,12.60
2019,09,24,11,32,12.60
2019,09,24,11,33,12.60
2019,09,24,11,34,12.60
2019,09,24,11,35,12.60
2019,09,24,11,36,12.60
2019,09,24,11,37,12.60
2019,09,24,11,38,12.60
2019,09,24,11,39,12.60
2019,09,24,11,40,12.60
2019,09,24,11,41,12.60
2019,09,24,11,42,12.60
2019,09,24,11,43,12.60
2019,09,24,11,44,12.60
2019,09,24,11,45,12.60
2019,09,24,11,46,12.60
2019,09,24,11,47,12.60
2019,09,24,11,48,12.60
2019,09,24,11,49,12.60
2019,09,24,11,50,12.60
2019,09,24,11,51,12.60
2019,09,24,11,52,12.60
2019,09,24,11,53,12.60
2019,09,24,11,54,12.60
2019,09,24,11,55,12.60
2019,09,24,11,56,12.60
2019,09,24,11,57,12.60
2019,09,24,11,58,12.60
2019,09,24,11,59,12.60
2019,09,24,12,00,12.60
2019,09,24,12,01,12.60
2019,09,24,12,02,12.60
2019,09,24,12,03,12.60
2019,09,24,12,04,12.60
2019,09,24,12,05,12.60
2019,09,24,12,06,12.60
2019,09,24,12,07,12.60
2019,09,24,12,08,12.60
2019,09,24,12,09,12.60
2019,09,24,12,10,12.60
2019,09,24,12,11,12.60
2019,09,24,12,12,12.60
2019,09,24,12,13,12.60
2019,09,24,12,14,12.60
2019,09,24,12,16,12.60
2019,09,24,12,17,12.60
2019,09,24,12,19,12.60
2019,09,24,12,20,12.60
2019,09,24,12,22,12.60
2019,09,24,12,24,12.60
2019,09,24,12,26,12.60
2019,09,24,12,27,12.60
2019,09,24,12,28,12.60
2019,09,24,12,29,12.60
2019,09,24,12,30,12.60
2019,09,24,12,32,12.60
2019,09,24,12,33,12.60
2019,09,24,12,34,12.60
2019,09,24,12,36,12.60
2019,09,24,12,37,12.60
2019,09,24,12,38,12.60
2019,09,24,12,39,12.60
2019,09,24,12,41,12.60
2019,09,24,12,42,12.60
2019,09,24,12,43,12.60
2019,09,24,12,44,12.60
2019,09,24,12,46,12.60
2019,09,24,12,47,12.60
2019,09,24,12,48,12.60
2019,09,24,12,49,12.60
2019,09,24,12,51,12.60
2019,09,24,12,52,12.60
2019,09,24,12,53,12.60
2019,09,24,12,54,12.60
2019,09,24,12,56,12.60
2019,09,24,12,57,12.60
2019,09,24,12,58,12.60
2019,09,24,12,59,12.60
2019,09,24,13,01,12.60
2019,09,24,13,02,12.60
2019,09,24,13,03,12.60
2019,09,24,13,04,12.60
2019,09,24,13,06,12.60
2019,09,24,13,07,12.60
2019,09,24,13,08,12.60
2019,09,24,13,09,12.60
2019,09,24,13,11,12.60
2019,09,24,13,12,12.60
2019,09,24,13,13,12.60
2019,09,24,13,14,12.60
2019,09,24,13,16,12.60
2019,09,24,13,17,12.60
2019,09,24,13,18,12.60
2019,09,24,13,19,12.60
2019,09,24,13,21,12.60
2019,09,24,13,22,12.60
2019,09,24,13,23,12.60
2019,09,24,13,24,12.60
2019,09,24,13,26,12.60
2019,09,24,13,27,12.60
2019,09,24,13,28,12.60
2019,09,24,13,29,12.60
2019,09,24,13,31,12.60
2019,09,24,13,32,12.60
2019,09,24,13,33,12.60
2019,09,24,13,34,12.60
2019,09,24,13,36,12.60
2019,09,24,13,37,12.60
2019,09,24,13,38,12.60
2019,09,24,13,39,12.60
2019,09,24,13,41,12.60
2019,09,24,13,42,12.60
2019,09,24,13,43,12.60
2019,09,24,13,44,12.60
2019,09,24,13,46,12.60
2019,09,24,13,47,12.60
2019,09,24,13,48,12.60
2019,09,24,13,49,12.60
2019,09,24,13,51,12.60
2019,09,24,13,52,12.60
2019,09,24,13,53,12.60
2019,09,24,13,54,12.60
2019,09,24,13,56,12.60
2019,09,24,13,57,12.60
2019,09,24,13,58,12.60
2019,09,24,13,59,12.60
2019,09,24,14,01,12.60
2019,09,24,14,02,12.60
2019,09,24,14,03,12.60
2019,09,24,14,04,12.60
2019,09,24,14,06,12.60
2019,09,24,14,07,12.60
2019,09,24,14,08,12.60
2019,09,24,14,09,12.60
2019,09,24,14,11,12.60
2019,09,24,14,12,12.60
2019,09,24,14,13,12.60
2019,09,24,14,14,12.60
2019,09,24,14,16,12.60
2019,09,24,14,17,12.60
2019,09,24,14,18,12.60
2019,09,24,14,19,12.60
2019,09,24,14,21,12.60
2019,09,24,14,22,12.60
2019,09,24,14,23,12.60
2019,09,24,14,24,12.60
2019,09,24,14,26,12.60
2019,09,24,14,27,12.60
2019,09,24,14,28,12.60
2019,09,24,14,29,12.60
2019,09,24,14,31,12.60
2019,09,24,14,32,12.60
2019,09,24,14,33,12.60
2019,09,24,14,34,12.60
2019,09,24,14,36,12.60
2019,09,24,14,37,12.60
2019,09,24,14,38,12.60
2019,09,24,14,39,12.60
2019,09,24,14,41,12.60
2019,09,24,14,42,12.60
2019,09,24,14,43,12.60
2019,09,24,14,44,12.60
2019,09,24,14,46,12.60
2019,09,24,14,47,12.60
2019,09,24,14,48,12.60
2019,09,24,14,49,12.60
2019,09,24,14,51,12.60
2019,09,24,14,52,12.60
2019,09,24,14,53,12.60
2019,09,24,14,54,12.60
2019,09,24,14,55,12.60
2019,09,24,14,56,12.60
2019,09,24,14,57,12.60
2019,09,24,14,58,12.60
2019,09,24,14,59,12.60
2019,09,24,15,00,12.60
2019,09,24,15,01,12.60
2019,09,24,15,02,12.60
2019,09,24,15,03,12.60
2019,09,24,15,04,12.60
2019,09,24,15,06,12.60
2019,09,24,15,07,12.60
2019,09,24,15,08,12.60
2019,09,24,15,09,12.60
2019,09,24,15,10,12.60
2019,09,24,15,12,12.60
2019,09,24,15,13,12.60
2019,09,24,15,14,12.60
2019,09,24,15,15,12.60
2019,09,24,15,16,12.60
2019,09,24,15,17,12.60
2019,09,24,15,18,12.60
2019,09,24,15,19,12.60
2019,09,24,15,20,12.60
2019,09,24,15,21,12.60
2019,09,24,15,22,12.60
2019,09,24,15,23,12.60
2019,09,24,15,24,12.60
2019,09,24,15,25,12.60
2019,09,24,15,26,12.60
2019,09,24,15,27,12.60
2019,09,24,15,28,12.60
2019,09,24,15,29,12.60
2019,09,24,15,30,12.60
2019,09,24,15,31,12.60
2019,09,24,15,32,12.60
2019,09,24,15,33,12.60
2019,09,24,15,34,12.60
2019,09,24,15,36,12.60
2019,09,24,15,37,12.60
2019,09,24,15,38,12.60
2019,09,24,15,39,12.60
2019,09,24,15,40,12.60
2019,09,24,15,41,12.60
2019,09,24,15,42,12.60
2019,09,24,15,43,12.60
2019,09,24,15,44,12.60
2019,09,24,15,45,12.60
2019,09,24,15,46,12.60
2019,09,24,15,47,12.60
2019,09,24,15,48,12.60
2019,09,24,15,49,12.60
2019,09,24,15,50,12.60
2019,09,24,15,51,19.90
2019,09,24,15,52,19.90
2019,09,24,15,53,19.90
2019,09,24,15,54,19.80
2019,09,24,15,55,19.80
2019,09,24,15,56,19.80
2019,09,24,15,57,19.70
2019,09,24,15,58,19.70
2019,09,24,15,59,19.60
2019,09,24,16,00,19.50
2019,09,24,16,01,19.50
2019,09,24,16,02,19.40
2019,09,24,16,03,19.40
2019,09,24,16,04,19.40
2019,09,24,16,05,19.40
2019,09,24,16,06,19.30
2019,09,24,16,07,19.30
2019,09,24,16,08,19.30
2019,09,24,16,09,19.30
2019,09,24,16,10,19.30
2019,09,24,16,11,19.30
2019,09,24,16,12,19.30
2019,09,24,16,13,19.40
2019,09,24,16,14,19.40
2019,09,24,16,15,19.40
2019,09,24,16,16,19.40
2019,09,24,16,17,19.40
2019,09,24,16,18,19.40
2019,09,24,16,19,19.40
2019,09,24,16,20,19.40
2019,09,24,16,21,19.40
2019,09,24,16,22,19.50
2019,09,24,16,23,19.50
2019,09,24,16,24,19.50
2019,09,24,16,25,19.50
2019,09,24,16,26,19.50
2019,09,24,16,27,19.50
2019,09,24,16,28,19.60
2019,09,24,16,29,19.60
2019,09,24,16,30,19.60
2019,09,24,16,31,19.60
2019,09,24,16,32,19.60
2019,09,24,16,33,19.60
2019,09,24,16,34,19.70
2019,09,24,16,35,19.70
2019,09,24,16,36,19.70
2019,09,24,16,37,19.80
2019,09,24,16,38,19.80
2019,09,24,16,39,19.80
2019,09,24,16,40,19.80
2019,09,24,16,41,19.90
2019,09,24,16,42,19.90
2019,09,24,16,43,19.90
2019,09,24,16,44,19.90
2019,09,24,16,45,19.90
2019,09,24,16,46,19.90
2019,09,24,16,47,19.90
2019,09,24,16,48,19.90
2019,09,24,16,49,19.90
2019,09,24,16,50,19.90
2019,09,24,16,51,19.90
2019,09,24,16,52,20.10
2019,09,24,16,53,20.10
2019,09,24,16,54,20.10
2019,09,24,16,55,20.20
2019,09,24,16,56,20.20
2019,09,24,16,57,20.20
2019,09,24,16,58,20.20
2019,09,24,16,59,20.10
2019,09,24,17,00,20.20
2019,09,24,17,01,20.20
2019,09,24,17,02,20.20
2019,09,24,17,03,20.20
2019,09,24,17,04,20.10
2019,09,24,17,05,20.10
2019,09,24,17,06,20.10
2019,09,24,17,07,19.90
2019,09,24,17,08,19.90
2019,09,24,17,09,19.90
2019,09,24,17,10,19.90
2019,09,24,17,11,19.90
2019,09,24,17,12,19.90
2019,09,24,17,13,19.80
2019,09,24,17,14,19.80
2019,09,24,17,15,19.80
2019,09,24,17,16,19.70
2019,09,24,17,17,19.70
2019,09,24,17,18,19.70
2019,09,24,17,19,19.70
2019,09,24,17,20,19.60
2019,09,24,17,21,19.60
2019,09,24,17,22,19.60
2019,09,24,17,23,19.60
2019,09,24,17,24,19.60
2019,09,24,17,25,19.60
2019,09,24,17,26,19.60
2019,09,24,17,28,19.60
2019,09,24,17,29,19.60
2019,09,24,17,30,19.60
2019,09,24,17,32,19.50
2019,09,24,17,33,19.50
2019,09,24,17,34,19.50
2019,09,24,17,36,19.50
2019,09,24,17,37,19.50
2019,09,24,17,38,19.50
2019,09,24,17,39,19.40
2019,09,24,17,41,19.40
2019,09,24,17,42,19.40
2019,09,24,17,43,19.40
2019,09,24,17,44,19.30
2019,09,24,17,46,19.30
2019,09,24,17,47,19.20
2019,09,24,17,48,19.20
2019,09,24,17,49,19.10
2019,09,24,17,51,19.10
2019,09,24,17,52,19.10
2019,09,24,17,53,19.10
2019,09,24,17,54,19.10
2019,09,24,17,56,19.10
2019,09,24,17,57,18.90
2019,09,24,17,58,18.90
2019,09,24,17,59,18.90
2019,09,24,18,01,18.90
2019,09,24,18,02,18.90
2019,09,24,18,03,18.90
2019,09,24,18,04,18.80
2019,09,24,18,06,18.80
2019,09,24,18,07,18.80
2019,09,24,18,08,18.80
2019,09,24,18,09,18.70
2019,09,24,18,11,18.70
2019,09,24,18,12,18.60
2019,09,24,18,13,18.60
2019,09,24,18,14,18.60
2019,09,24,18,16,18.50
2019,09,24,18,17,18.50
2019,09,24,18,18,18.50
2019,09,24,18,19,18.40
2019,09,24,18,21,18.40
2019,09,24,18,22,18.40
2019,09,24,18,23,18.30
2019,09,24,18,24,18.30
2019,09,24,18,26,18.30
2019,09,24,18,27,18.30
2019,09,24,18,28,18.30
2019,09,24,18,29,18.30
2019,09,24,18,30,18.20
2019,09,24,18,32,18.20
2019,09,24,18,33,18.20
2019,09,24,18,34,18.20
2019,09,24,18,36,18.20
2019,09,24,18,37,18.20
2019,09,24,18,38,18.20
2019,09,24,18,39,18.20
2019,09,24,18,41,18.20
2019,09,24,18,42,18.20
2019,09,24,18,43,18.10
2019,09,24,18,44,18.10
2019,09,24,18,46,18.10
2019,09,24,18,47,17.90
2019,09,24,18,48,17.90
2019,09,24,18,49,17.90
2019,09,24,18,51,17.90
2019,09,24,18,52,17.90
2019,09,24,18,53,17.90
2019,09,24,18,54,17.90
2019,09,24,18,56,17.80
2019,09,24,18,57,17.80
2019,09,24,18,58,17.70
2019,09,24,18,59,17.70
2019,09,24,19,01,17.60
2019,09,24,19,02,17.60
2019,09,24,19,03,17.60
2019,09,24,19,04,17.50
2019,09,24,19,06,17.50
2019,09,24,19,07,17.40
2019,09,24,19,08,17.40
2019,09,24,19,09,17.40
2019,09,24,19,11,17.30
2019,09,24,19,12,17.30
2019,09,24,19,13,17.30
2019,09,24,19,14,17.30
2019,09,24,19,16,17.20
2019,09,24,19,17,17.20
2019,09,24,19,18,17.20
2019,09,24,19,19,17.10
2019,09,24,19,21,17.10
2019,09,24,19,22,17.00
2019,09,24,19,23,17.00
2019,09,24,19,24,17.00
2019,09,24,19,26,16.90
2019,09,24,19,27,16.90
2019,09,24,19,28,16.80